Wengen, Switzerland 16 day weather forecast

Slopes altitude range 945 m - 2970m

Number of lifts: 44 Pistes: 213km

In some cases the lift and piste totals shown are for the ski domain (e.g. Three Valleys) rather than individual resort (e.g. Courchevel)

Overview

The 16 day weather forecast is fully updated 4 times every day.

    • Tue 24 APR 2018
    • Tue 24
    • 0C 4C
    • Wed 25 APR 2018
    • Wed 25
    • 1C 5C
    • Thu 26 APR 2018
    • Thu 26
    • 0C 1C
    • Fri 27 APR 2018
    • Fri 27
    • 1C 3C
    • Sat 28 APR 2018
    • Sat 28
    • 1C 2C
    • Sun 29 APR 2018
    • Sun 29
    • 0C 2C
    • Mon 30 APR 2018
    • Mon 30
    • -6C -3C
    • Tue 01 MAY 2018
    • Tue 01
    • 6C 13C
    • Wed 02 MAY 2018
    • Wed 02
    • 6C 13C
    • Thu 03 MAY 2018
    • Thu 03
    • 5C 10C
    • Fri 04 MAY 2018
    • Fri 04
    • 2C 7C
    • Sat 05 MAY 2018
    • Sat 05
    • 5C 12C
    • Sun 06 MAY 2018
    • Sun 06
    • 7C 16C
    • Mon 07 MAY 2018
    • Mon 07
    • 9C 13C
    • Tue 08 MAY 2018
    • Tue 08
    • 9C 16C
    • Wed 09 MAY 2018
    • Wed 09
    • 10C 20C

Date:

Time Type 0°C level Temp Chill Snow Cloud Speed Gust Dir Press
3:00 2367m -1°C -1_3 0cm 88% 3mph 4mph 1020mB
6:00 2444m -3°C -3_1 0cm 87% 1mph 2mph 1020mB
9:00 2968m -1°C -1_2 0cm 17% 2mph 3mph 1019mB
12:00 3197m 4°C 4_3 0cm 25% 3mph 3mph 1018mB
15:00 3321m 4°C 4_4 0cm 53% 4mph 4mph 1017mB
18:00 3216m 4°C 4_2 0cm 48% 2mph 3mph 1017mB
21:00 2686m -2°C -2_4 0cm 53% 4mph 5mph 1019mB
0:00 2322m -2°C -2_5 0cm 46% 5mph 5mph 1019mB
3:00 2196m -2°C -2_4 0cm 2% 4mph 5mph 1018mB
6:00 3272m -3°C -3_4 0cm 1% 4mph 5mph 1018mB
9:00 3204m 1°C 1_3 0cm 0% 3mph 4mph 1017mB
12:00 3378m 5°C 5_3 0cm 0% 3mph 4mph 1016mB
15:00 3430m 5°C 5_4 0cm 24% 4mph 5mph 1015mB
18:00 3272m 5°C 5_4 0cm 45% 4mph 5mph 1015mB
21:00 2896m 0°C 0_3 0cm 50% 3mph 4mph 1018mB
0:00 2972m 0°C 0_4 0cm 73% 4mph 5mph 1017mB
3:00 2839m 1°C 1_4 0cm 100% 4mph 5mph 1017mB
6:00 2775m 0°C 0_4 1cm 100% 4mph 5mph 1018mB
9:00 2644m 0°C 0_6 1cm 100% 6mph 6mph 1018mB
12:00 2648m 1°C 1_6 1cm 100% 6mph 7mph 1017mB
15:00 2742m 1°C 1_7 1cm 100% 7mph 7mph 1015mB
18:00 2628m 1°C 1_5 1cm 99% 5mph 5mph 1016mB
21:00 2464m -1°C -1_1 0cm 98% 1mph 2mph 1018mB
0:00 1973m -4°C -4_3 0cm 79% 3mph 4mph 1017mB
3:00 2187m -4°C -4_7 0cm 70% 7mph 8mph 1015mB
6:00 3012m -4°C -4_8 0cm 82% 8mph 8mph 1014mB
9:00 3048m 1°C 1_6 0cm 98% 6mph 7mph 1012mB
12:00 3032m 3°C 3_6 0cm 99% 6mph 7mph 1011mB
15:00 2948m 3°C 3_4 0cm 100% 4mph 4mph 1010mB
18:00 2908m 3°C 3_4 0cm 100% 4mph 4mph 1011mB
21:00 2871m 1°C 1_4 6cm 100% 4mph 4mph 1013mB
0:00 2850m 1°C 1_4 5cm 100% 4mph 4mph 1013mB
3:00 2796m 1°C 1_3 3cm 100% 3mph 3mph 1012mB
6:00 2754m 0°C 0_3 3cm 100% 3mph 3mph 1012mB
9:00 2815m 1°C 1_4 3cm 100% 4mph 4mph 1011mB
12:00 2931m 2°C 2_6 4cm 100% 6mph 6mph 1010mB
15:00 3078m 3°C 3_5 0cm 100% 5mph 6mph 1008mB
18:00 3004m 3°C 3_7 0cm 100% 7mph 8mph 1008mB
21:00 2983m 1°C 1_10 1cm 100% 10mph 10mph 1009mB
0:00 3014m 1°C 1_10 0cm 100% 10mph 11mph 1008mB
3:00 2918m 1°C 1_10 3cm 100% 10mph 12mph 1007mB
6:00 2738m 0°C 0_11 4cm 100% 11mph 13mph 1006mB
9:00 2738m 0°C 0_13 1cm 94% 13mph 16mph 1006mB
12:00 2840m 2°C 2_12 1cm 84% 12mph 15mph 1006mB
15:00 2874m 3°C 3_13 0cm 58% 13mph 16mph 1005mB
18:00 2752m 3°C 3_12 0cm 52% 12mph 16mph 1006mB
21:00 2366m -1°C -1_11 0cm 93% 11mph 12mph 1009mB
0:00 2194m -3°C -3_11 1cm 93% 11mph 14mph 1009mB
3:00 1980m -4°C -4_8 1cm 100% 8mph 11mph 1010mB
6:00 1857m -6°C -6_4 5cm 100% 4mph 6mph 1012mB
9:00 1840m -6°C -6_3 13cm 100% 3mph 3mph 1012mB
12:00 2023m -3°C -3_4 9cm 100% 4mph 4mph 1010mB
15:00 2136m -3°C -3_5 2cm 97% 5mph 5mph 1010mB
18:00 1971m -3°C -3_2 4cm 99% 2mph 3mph 1012mB
21:00 1883m -5°C -5_2 13cm 100% 2mph 3mph 1014mB
0:00 1877m -5°C -5_4 10cm 100% 4mph 4mph 1015mB
3:00 1781m -5°C -5_4 4cm 100% 4mph 5mph 1015mB
6:00 1898m -6°C -6_6 3cm 100% 6mph 7mph 1015mB
9:00 1984m 6°C 6_4 0cm 9% 4mph 4mph 1013mB
12:00 2141m 13°C 13_2 0cm 47% 2mph 2mph 1011mB
15:00 2163m 13°C 13_3 0cm 100% 3mph 5mph 1010mB
18:00 2042m 13°C 13_2 0cm 100% 2mph 3mph 1012mB
21:00 2009m 6°C 6_2 0cm 97% 2mph 3mph 1014mB
0:00 2039m 5°C 5_3 0cm 99% 3mph 4mph 1013mB
3:00 2007m 4°C 4_3 0cm 100% 3mph 4mph 1013mB
6:00 1935m 4°C 4_2 0cm 97% 2mph 2mph 1012mB
9:00 1912m 6°C 6_3 0cm 55% 3mph 3mph 1009mB
12:00 2130m 13°C 13_4 0cm 72% 4mph 4mph 1007mB
15:00 2196m 12°C 12_3 0cm 100% 3mph 6mph 1005mB
18:00 2125m 12°C 12_4 0cm 100% 4mph 5mph 1005mB
21:00 2121m 5°C 5_4 0cm 99% 4mph 5mph 1006mB
0:00 1972m 3°C 3_3 0cm 86% 3mph 4mph 1005mB
3:00 1921m 2°C 2_3 0cm 16% 3mph 4mph 1003mB
6:00 1849m 1°C 1_1 0cm 19% 1mph 1mph 1001mB
9:00 1795m 5°C 5_5 0cm 43% 5mph 5mph 998mB
12:00 1609m 10°C 10_7 0cm 71% 7mph 14mph 997mB
15:00 1510m 5°C 5_4 0cm 100% 4mph 10mph 997mB
18:00 1433m 5°C 5_4 0cm 100% 4mph 7mph 999mB
Morning 0.223958mm 0 1107m 0°C 0_6 2cm 92% 6mph 12mph 1002mB
Afternoon 0.21875mm 0.3125 1579m 7°C 7_8 0cm 91% 8mph 18mph 1003mB
Morning 0.3125mm 0 2117m 3°C 3_6 0cm 97% 6mph 18mph 1002mB
Afternoon 0.015625mm 0.1875 2225m 12°C 12_2 0cm 56% 2mph 2mph 1010mB
Morning 0mm 0 2338m 3°C 3_4 0cm 24% 4mph 6mph 1015mB
Afternoon 0.0104167mm 0.125 2643m 16°C 16_3 0cm 35% 3mph 6mph 1014mB
Morning 0.0364583mm 0 2652m 7°C 7_2 0cm 69% 2mph 4mph 1013mB
Afternoon 0.0572917mm 0.3125 2615m 13°C 13_5 0cm 79% 5mph 10mph 1011mB
Morning 0.00520833mm 0 2569m 6°C 6_3 0cm 44% 3mph 5mph 1009mB
Afternoon 0.0833333mm 1 2839m 16°C 16_4 0cm 30% 4mph 6mph 1006mB
Morning 0.00520833mm 0.0625 2786m 6°C 6_4 0cm 8% 4mph 6mph 1007mB
Afternoon 0mm 0 3074m 20°C 20_3 0cm 24% 3mph 4mph 1005mB

16 day outlook at a glance

Forecast issued: 24/04/2018 05:27:59

Chat

Your comments and questions. In a resort? Let us know what it's like!


Characters left 250

For terms and conditions see Readers Comments on the Cookie and privacy policy page.